GW4950 Weather Reports


Display with metric or nautical units.
time (UTC)temp
F
wind
direction
speed
MPH
gust
MPH
rain 1hr
in
rain 24hr
in
rain mn
in
humidity
%
barometer
mb
20260506204522 49 87 0.0 2.0 0.00 0.00 0.00 67 1009.6
20260506203025 50 100 0.0 3.0 0.00 0.00 0.00 64 1009.5
20260506201535 52 100 0.0 4.0 0.00 0.00 0.00 60 1009.5
20260506200047 54 116 0.0 0.0 0.00 0.00 0.00 55 1009.3
20260506194530 58 116 0.0 0.0 0.00 0.00 0.00 44 1009.3
20260506193021 58 116 0.0 0.0 0.00 0.00 0.00 44 1009.2
20260506191507 58 116 0.0 0.0 0.00 0.00 0.00 43 1009.2
20260506190058 59 116 0.0 4.0 0.00 0.00 0.00 42 1009.1
20260506184520 60 118 2.0 5.0 0.00 0.00 0.00 40 1009.1
20260506183016 60 125 2.0 6.0 0.00 0.00 0.00 39 1009.0
20260506181552 61 122 3.0 6.0 0.00 0.00 0.00 39 1008.9
20260506180049 61 117 3.0 7.0 0.00 0.00 0.00 38 1009.0
20260506174508 62 121 1.0 9.0 0.00 0.00 0.00 39 1009.0
20260506173108 63 137 2.0 6.0 0.00 0.00 0.00 38 1009.0
20260506171506 62 111 0.0 7.0 0.00 0.00 0.00 39 1009.1
20260506170107 62 73 0.0 6.0 0.00 0.00 0.00 38 1009.1
20260506164508 62 158 2.0 7.0 0.00 0.00 0.00 37 1009.2
20260506163002 64 118 3.0 9.0 0.00 0.00 0.00 37 1009.2
20260506161516 63 14 0.0 8.0 0.00 0.00 0.00 38 1009.2
20260506160011 63 159 4.0 10.0 0.00 0.00 0.00 37 1009.3
20260506154532 65 11 1.0 10.0 0.00 0.00 0.00 38 1009.4
20260506153020 64 100 2.0 7.0 0.00 0.00 0.00 39 1009.5
20260506151602 63 115 1.0 9.0 0.00 0.00 0.00 39 1009.6
20260506151506 63 110 1.0 9.0 0.00 0.00 0.00 38 1009.6
20260506150046 63 212 1.0 9.0 0.00 0.00 0.00 39 1009.8
20260506144514 62 176 5.0 11.0 0.00 0.00 0.00 41 1010.0
20260506143004 63 217 2.0 9.0 0.00 0.00 0.00 42 1010.2
20260506141540 62 227 3.0 10.0 0.00 0.00 0.00 41 1010.3
20260506140022 62 183 6.0 11.0 0.00 0.00 0.00 43 1010.5
20260506134536 63 139 2.0 6.0 0.00 0.00 0.00 44 1010.6
20260506133029 60 210 4.0 10.0 0.00 0.00 0.00 43 1010.7
20260506131547 61 271 0.0 6.0 0.00 0.00 0.00 47 1010.8
20260506130036 60 140 0.0 8.0 0.00 0.00 0.00 48 1011.0
20260506124557 60 154 5.0 11.0 0.00 0.00 0.00 47 1011.1
20260506123036 62 150 2.0 7.0 0.00 0.00 0.00 47 1011.2
20260506121553 59 100 4.0 8.0 0.00 0.00 0.00 48 1011.3
20260506120045 59 141 1.0 8.0 0.00 0.00 0.00 52 1011.4
20260506114508 59 144 5.0 12.0 0.00 0.00 0.00 50 1011.6
20260506113057 58 92 1.0 7.0 0.00 0.00 0.00 47 1011.7
20260506111535 58 75 1.0 8.0 0.00 0.00 0.00 51 1011.8
20260506110021 58 99 1.0 10.0 0.00 0.00 0.00 52 1011.9
20260506104538 57 173 1.0 10.0 0.00 0.00 0.00 55 1012.0
20260506103025 55 150 0.0 7.0 0.00 0.00 0.00 55 1012.1
20260506101541 56 110 4.0 8.0 0.00 0.00 0.00 58 1012.1
20260506100029 56 177 2.0 7.0 0.00 0.00 0.00 56 1012.3
20260506094539 55 162 3.0 10.0 0.00 0.00 0.00 57 1012.2
20260506093029 54 103 2.0 6.0 0.00 0.00 0.00 60 1012.2
20260506091545 54 179 3.0 8.0 0.00 0.00 0.00 61 1012.2
20260506090041 53 102 1.0 5.0 0.00 0.00 0.00 64 1012.2
20260506084609 53 218 3.0 6.0 0.00 0.00 0.00 64 1012.2
20260506083041 53 117 3.0 5.0 0.00 0.00 0.00 65 1012.2
20260506081547 51 119 3.0 6.0 0.00 0.00 0.00 64 1012.2
20260506073035 49 146 0.0 5.0 0.00 0.00 0.00 69 1012.1
20260506071527 49 141 2.0 5.0 0.00 0.00 0.00 69 1012.1
20260506061546 42 8 2.0 4.0 0.00 0.00 0.00 85 1011.8
20260506050109 38 8 0.0 0.0 0.00 0.00 0.00 86 1011.3
20260506044545 39 8 1.0 4.0 0.00 0.00 0.00 86 1011.3
20260506043036 38 8 0.0 0.0 0.00 0.00 0.00 85 1011.2
20260506041553 39 8 0.0 0.0 0.00 0.00 0.00 85 1011.3
20260506040100 39 8 0.0 3.0 0.00 0.00 0.00 84 1011.3
20260506034510 39 8 0.0 4.0 0.00 0.00 0.00 84 1011.3
20260506033004 40 8 3.0 6.0 0.00 0.00 0.00 85 1011.4
20260506031522 39 5 0.0 2.0 0.00 0.00 0.00 85 1011.3
20260506030007 39 90 0.0 3.0 0.00 0.00 0.00 85 1011.3
20260506024554 39 90 0.0 0.0 0.00 0.00 0.00 85 1011.2
20260506023033 40 90 1.0 3.0 0.00 0.00 0.00 82 1011.2
20260506021607 41 90 2.0 3.0 0.00 0.00 0.00 82 1011.2
20260506020053 40 90 0.0 0.0 0.00 0.00 0.00 82 1011.2
20260506014508 41 90 0.0 0.0 0.00 0.00 0.00 80 1011.4
20260506013055 42 90 0.0 2.0 0.00 0.00 0.00 78 1011.4
20260506011608 44 118 1.0 3.0 0.00 0.00 0.00 74 1011.4
20260506010042 46 120 0.0 3.0 0.00 0.00 0.00 72 1011.3
20260506004553 46 123 1.0 6.0 0.00 0.00 0.00 71 1011.4
20260506004505 46 123 1.0 6.0 0.00 0.00 0.00 70 1011.4
20260506003052 47 142 0.0 6.0 0.00 0.00 0.00 67 1011.4
20260506001555 46 66 0.0 3.0 0.00 0.00 0.00 67 1011.5
20260506001504 46 66 0.0 3.0 0.00 0.00 0.00 67 1011.5
20260506000055 45 39 0.0 0.0 0.00 0.00 0.00 70 1011.5
20260505234542 45 37 0.0 3.0 0.00 0.00 0.00 72 1011.4
20260505233032 44 37 0.0 0.0 0.00 0.00 0.00 72 1011.4
20260505231603 45 37 0.0 3.0 0.00 0.00 0.00 69 1011.3
20260505230043 45 37 0.0 4.0 0.00 0.00 0.00 69 1011.3
20260505224550 48 34 0.0 2.0 0.00 0.00 0.00 64 1011.3
20260505223102 47 34 0.0 6.0 0.00 0.00 0.00 65 1011.3
20260505221514 49 325 4.0 6.0 0.00 0.00 0.00 62 1011.3
20260505220007 49 333 4.0 8.0 0.00 0.00 0.00 62 1011.2
20260505214602 49 3 4.0 7.0 0.00 0.00 0.00 63 1011.3
20260505213029 50 295 5.0 11.0 0.00 0.00 0.00 60 1011.3
20260505211543 51 298 5.0 12.0 0.00 0.00 0.00 59 1011.3
20260505210039 50 319 0.0 6.0 0.00 0.00 0.00 58 1011.3